Location: S�tio Andr� Veiga
(26.0736°S, 49.6746°W)
Time: 06:56:42
(UTC+00:00)

Daily predictions for brighter satellites

Satellite Brightness Start Highest point End
(mag) Time Altitude Azimuth Time Altitude Azimuth Time Altitude Azimuth
Centaur D-1AR AC-39 4.5 20:50:21 10° W 20:56:12 62° N 21:47:32 10° ENE
Delta 2 Rocket 4.5 21:10:50 10° W 21:17:20 73° NNW 21:25:04 10° ENE
Cosmos 1371 Rocket 4.2 21:13:51 10° N 21:19:01 53° ENE 21:24:11 10° SSE
Hubble Space Telescope 0.9 21:18:13 10° W 21:22:22 68° S 21:26:31 10° ESE
AQUARIUS 4.2 21:20:53 10° SSE 21:25:23 62° E 21:29:50 10° N
CZ-4B R/B 3.2 21:20:06 10° SSE 21:25:36 89° WSW 21:30:56 10° NNW
H-2A R/B 4.1 21:22:04 10° S 21:25:36 41° WSW 21:29:06 10° NNW
deb Centaur AC-2 4.1 21:21:18 10° WSW 21:25:40 88° SSE 21:30:26 10° ENE
Cosmos 2151 3.1 21:23:17 10° S 21:27:36 82° W 21:31:50 10° N
Cosmos 2082 Rocket 3.5 21:24:07 10° SSE 21:28:01 19° ESE 21:31:55 10° ENE
SMAP 3.0 21:24:25 10° SSE 21:29:08 79° ENE 21:33:47 10° N
ATLAS 2AS CENTAUR R/B 2.7 21:25:09 10° NNW 21:31:25 76° WSW 21:37:34 10° SSE
Cosmos 2341 Rocket 4.2 21:25:30 10° S 21:31:31 47° E 21:37:26 10° NNE
Okean O Rocket 2.0 21:28:25 10° S 21:32:48 69° WSW 21:37:07 10° NNW
Lacrosse 5 rocket 2.1 21:29:26 10° NW 21:32:59 43° SW 21:36:30 10° SSE
USA 116 3.8 21:30:42 10° N 21:33:50 59° W 21:36:56 10° SSW
Meteor 1-27 4.3 21:31:39 10° N 21:37:22 87° E 21:43:05 10° S
Cosmos 2056 Rocket 3.4 21:33:47 10° N 21:38:57 72° ENE 21:44:06 10° SSE
Cosmos 1869 3.3 21:37:06 10° N 21:40:59 56° E 21:44:52 10° SSE
Cosmos 2181 Rocket 4.0 21:36:22 10° N 21:42:32 74° E 21:48:53 10° S
Delta 168 4.3 21:43:16 10° WNW 21:48:18 54° NNE 21:54:12 17° E
Cosmos 2278 Rocket 4.4 21:44:08 10° WNW 21:48:42 25° WSW 21:53:19 10° S
FengYun 1-2 T 4.2 21:45:04 10° SSE 21:50:39 63° E 21:56:08 10° N
Meteor 2-3 Rocket 3.7 21:45:09 10° S 21:50:53 74° E 21:56:37 10° NNE
APEX 4.5 21:45:54 10° NNW 21:51:52 78° ENE 21:58:54 10° SSE
OAO 3 Copernicus 4.4 21:47:16 10° WNW 21:52:22 75° SSW 21:56:03 19° ESE
RESURS DK-1 3.1 21:49:28 10° N 21:53:10 32° ENE 21:55:17 20° ESE
ATLAS 3B R/B 4.4 21:51:05 10° SSE 21:53:15 11° SE 21:53:26 11° SE
IRS-1C Rocket 4.2 21:48:05 10° SSE 21:53:18 54° E 21:58:28 10° N
Cosmos 371 Rocket 3.4 21:50:36 10° N 21:55:16 52° ENE 22:00:00 10° SSE
Aurora 2 Rocket 2.3 21:52:26 10° W 21:55:29 51° N 21:57:36 20° ENE
NOAA 11 4.3 21:51:03 10° SSE 21:56:25 55° E 22:01:42 10° N
Helios 1A Rocket 2.9 21:53:23 10° SSE 21:57:29 59° ENE 22:01:30 10° N
MOS 1 Rocket 3.3 21:53:54 10° NNE 21:58:52 62° ESE 22:03:35 10° S
Atlas Centaur 2 1.6 21:55:24 10° WSW 21:58:57 41° S 22:00:27 27° SE
Cosmos 2221 2.5 21:55:59 10° N 22:00:17 85° W 22:04:39 10° S
USA 238 DEB 3.6 21:55:05 10° SSW 22:01:49 64° ESE 22:08:19 10° NE
Cosmos 2218 Rocket 4.1 21:55:42 10° S 22:01:55 52° E 22:07:59 10° NNE
USA 238 3.6 21:55:14 10° SSW 22:01:57 63° ESE 22:08:24 10° NE
OAO 3 Rocket 3.5 21:57:32 10° SW 22:02:07 48° SSE 22:04:23 27° E
Feng Yun 1-1 Rocket 4.3 21:56:44 10° SSE 22:02:39 80° ENE 22:08:23 10° N
Cosmos 1452 Rocket 4.1 21:58:00 10° NNE 22:02:46 36° E 22:05:47 20° SE
CZ-2D R/B 3.8 22:05:16 30° ESE 22:06:11 35° E 22:09:40 10° NNE
Cosmos 1140 Rocket 4.1 22:03:50 10° S 22:08:31 33° ESE 22:10:59 22° ENE
GPS 2-04 Rocket1 4.4 22:07:38 10° N 22:10:02 16° NE 22:10:05 16° NE
Cosmos 2369 Rocket 2.8 22:09:01 10° NNE 22:14:02 33° ENE 22:15:10 31° E
Cosmos 1939 Rocket 2.7 22:12:13 14° SSE 22:15:34 67° ENE 22:19:25 10° N
Meteor 2-12 Rocket 4.4 22:10:29 10° S 22:16:41 85° E 22:22:51 10° N
Cosmos 1833 Rocket 2.8 22:13:20 10° SSW 22:18:59 78° WNW 22:24:35 10° NNE
Cosmos 1633 2.6 22:16:13 10° S 22:19:52 77° W 22:23:26 10° N
Intelsat 5-1 Rocket 3.2 22:07:30 10° WNW 22:20:31 69° N 22:22:52 34° ENE
Cosmos 864 Rocket 4.4 22:15:03 10° S 22:21:21 71° E 22:27:38 10° NNE
SWIFT 4.1 22:20:33 10° NNW 22:23:41 20° NNE 22:24:18 19° NNE
Cosmos 1867 3.9 22:19:07 10° SSW 22:24:28 65° WNW 22:29:48 10° NNE
CZ-2C R/B 2.5 22:21:41 10° NNE 22:27:00 73° ESE 22:32:31 10° S
IRIS 4.4 22:22:58 10° NW 22:27:30 70° NNE 22:27:30 70° NNE
YAOGAN 1 2.7 22:30:38 52° NE 22:30:38 52° NE 22:34:27 10° N
CENTAUR R/B 2.0 22:25:57 10° SSW 22:31:14 54° ESE 22:31:55 50° E
Nadezhda 3 Rocket 3.9 22:27:15 10° N 22:33:16 60° E 22:39:23 10° SSE
COSMOS 2455 3.1 22:27:25 10° NNW 22:33:22 70° WSW 22:38:25 15° SSE
GPS 2-12 Rocket1 4.1 22:30:35 10° NW 22:34:28 30° N 22:34:50 29° NNE
SEDSat Delta rocket 3.6 22:32:18 10° NW 22:35:55 41° NNE 22:35:55 41° NNE
ASTRO E2 4.2 22:34:33 10° NNW 22:37:11 26° N 22:37:11 26° N
DELTA 2 R/B (1) 4.1 22:35:03 10° WNW 22:40:28 51° SSW 22:42:05 39° SSE
Cosmos 1943 Rocket 2.2 22:39:41 10° NNW 22:45:11 74° WSW 22:48:07 29° S
DMSP B5D2-2 4.3 22:42:27 10° N 22:47:42 72° WNW 22:53:02 10° SSW
Cosmos 1743 Rocket 4.2 22:45:14 10° SSW 22:49:32 55° W 22:53:49 10° N
Okean-O 3.5 22:48:44 16° S 22:52:06 47° WSW 22:56:21 10° NNW
CZ-4C R/B 3.0 22:45:16 10° NNW 22:53:47 80° ENE 22:56:55 42° SE
Cosmos 304 Rocket 3.9 22:52:07 10° NNW 22:56:50 70° WSW 22:56:50 70° WSW
NOSS 3-2 (C) 3.5 22:57:46 10° SW 23:03:35 65° WNW 23:04:56 48° N
Hubble Space Telescope 2.4 22:59:35 10° WSW 23:02:00 33° WSW 23:02:00 33° WSW
CZ-4 R/B 3.0 23:06:34 31° W 23:06:34 31° W 23:09:29 10° NW
Cosmos 2082 Rocket 3.3 23:06:47 10° SW 23:12:12 44° WNW 23:17:35 10° N
Milstar 3 Cent rocket 4.0 23:37:02 10° W 23:38:49 23° WSW 23:38:49 23° WSW
ATLAS 3B R/B 4.2 23:37:58 10° SSW 23:40:44 26° SSW 23:40:44 26° SSW
